F8KHU-13 Weather Reports


Display with metric or nautical units.
time (UTC)temp
F
wind
direction
speed
MPH
gust
MPH
rain 1hr
in
rain 24hr
in
rain mn
in
humidity
%
barometer
mb
20260506164033 57 101 4.0 11.0 0.00 0.24 0.17 30 1011.5
20260506164013 57 101 5.0 11.0 0.00 0.24 0.17 30 1011.5
20260506163953 57 102 5.0 11.0 0.00 0.24 0.17 30 1011.5
20260506162534 57 93 4.0 11.0 0.00 0.24 0.17 30 1011.5
20260506162513 57 93 6.0 11.0 0.00 0.24 0.17 30 1011.4
20260506162453 57 93 4.0 11.0 0.00 0.24 0.17 30 1011.3
20260506161033 57 96 4.0 8.0 0.00 0.24 0.17 30 1011.5
20260506161013 56 96 4.0 8.0 0.00 0.24 0.17 30 1011.4
20260506160954 56 96 3.0 8.0 0.00 0.24 0.17 30 1011.5
20260506155534 56 93 7.0 9.0 0.00 0.26 0.17 30 1011.5
20260506155514 56 93 7.0 9.0 0.00 0.26 0.17 30 1011.4
20260506155454 56 93 7.0 9.0 0.00 0.26 0.17 30 1011.5
20260506154034 56 93 8.0 13.0 0.00 0.26 0.17 30 1011.4
20260506154014 56 93 5.0 13.0 0.00 0.26 0.17 30 1011.4
20260506153954 56 93 4.0 13.0 0.00 0.26 0.17 30 1011.5
20260506152534 57 93 8.0 13.0 0.00 0.26 0.17 30 1011.4
20260506152454 57 93 5.0 13.0 0.00 0.26 0.17 30 1011.4
20260506151034 59 93 5.0 8.0 0.00 0.26 0.17 30 1011.5
20260506151014 59 93 6.0 8.0 0.00 0.26 0.17 30 1011.5
20260506150954 59 93 4.0 8.0 0.00 0.26 0.17 30 1011.5
20260506145534 58 87 2.0 7.0 0.00 0.26 0.17 30 1011.4
20260506145514 58 87 3.0 7.0 0.00 0.26 0.17 30 1011.5
20260506145454 58 87 3.0 7.0 0.00 0.26 0.17 30 1011.4
20260506144106 58 90 4.0 7.0 0.00 0.26 0.17 30 1011.4
20260506144034 58 90 4.0 7.0 0.00 0.26 0.17 30 1011.4
20260506144014 58 90 1.0 7.0 0.00 0.26 0.17 30 1011.5
20260506143954 58 90 4.0 7.0 0.00 0.26 0.17 30 1011.4
20260506142535 60 92 4.0 9.0 0.00 0.26 0.17 29 1011.4
20260506142514 60 92 2.0 9.0 0.00 0.26 0.17 30 1011.3
20260506142454 60 92 3.0 9.0 0.00 0.26 0.17 29 1011.3
20260506141035 59 94 4.0 8.0 0.00 0.26 0.17 30 1011.4
20260506140955 59 94 4.0 8.0 0.00 0.26 0.17 30 1011.4
20260506135535 58 93 3.0 9.0 0.00 0.26 0.17 30 1011.6
20260506135515 58 93 4.0 9.0 0.00 0.26 0.17 30 1011.6
20260506135455 58 93 5.0 9.0 0.00 0.26 0.17 30 1011.6
20260506134015 58 100 3.0 7.0 0.00 0.26 0.17 30 1011.4
20260506133955 58 101 3.0 7.0 0.00 0.26 0.17 30 1011.5
20260506132535 56 92 3.0 7.0 0.00 0.26 0.17 31 1011.5
20260506132515 56 93 1.0 7.0 0.00 0.26 0.17 32 1011.5
20260506132455 56 92 1.0 7.0 0.00 0.26 0.17 31 1011.5
20260506131035 55 103 2.0 7.0 0.00 0.26 0.17 32 1011.5
20260506131015 55 103 3.0 7.0 0.00 0.26 0.17 32 1011.5
20260506130955 55 103 2.0 7.0 0.00 0.26 0.17 32 1011.5
20260506125535 56 103 3.0 8.0 0.00 0.26 0.17 31 1011.4
20260506125455 56 104 3.0 8.0 0.00 0.26 0.17 31 1011.4
20260506124035 57 117 2.0 9.0 0.00 0.26 0.17 30 1011.4
20260506124015 57 117 3.0 9.0 0.00 0.26 0.17 30 1011.3
20260506123955 57 117 4.0 9.0 0.00 0.26 0.17 30 1011.3
20260506122536 58 127 3.0 9.0 0.00 0.26 0.17 30 1011.3
20260506122516 58 128 4.0 9.0 0.00 0.26 0.17 30 1011.2
20260506122455 58 129 3.0 9.0 0.00 0.26 0.17 30 1011.2
20260506121036 55 120 1.0 7.0 0.00 0.26 0.17 32 1011.2
20260506121016 55 121 2.0 7.0 0.00 0.26 0.17 32 1011.2
20260506120956 55 121 1.0 7.0 0.00 0.26 0.17 32 1011.3
20260506115516 54 102 1.0 8.0 0.00 0.26 0.17 32 1011.2
20260506115456 54 101 1.0 8.0 0.00 0.26 0.17 32 1011.2
20260506114036 54 105 1.0 11.0 0.00 0.26 0.17 32 1011.0
20260506114016 55 105 5.0 11.0 0.00 0.26 0.17 32 1011.1
20260506113956 55 105 2.0 11.0 0.00 0.26 0.17 32 1011.1
20260506112536 56 120 1.0 9.0 0.00 0.26 0.17 32 1011.0
20260506112516 56 120 3.0 9.0 0.00 0.26 0.17 32 1011.1
20260506112456 56 120 2.0 9.0 0.00 0.26 0.17 32 1011.0
20260506111036 56 122 1.0 11.0 0.00 0.26 0.17 32 1011.0
20260506111016 56 122 1.0 11.0 0.00 0.26 0.17 32 1011.1
20260506110956 56 123 3.0 11.0 0.00 0.26 0.17 32 1011.1
20260506105536 54 138 6.0 8.0 0.00 0.26 0.17 34 1011.1
20260506105516 54 137 2.0 8.0 0.00 0.26 0.17 34 1011.1
20260506105457 54 138 4.0 8.0 0.00 0.26 0.17 34 1011.1
20260506104036 51 135 3.0 9.0 0.00 0.26 0.17 34 1011.0
20260506104017 51 136 2.0 9.0 0.00 0.26 0.17 34 1011.1
20260506103957 51 135 3.0 9.0 0.00 0.26 0.17 34 1011.0
20260506102537 51 123 2.0 7.0 0.00 0.26 0.17 37 1011.0
20260506102517 51 124 1.0 7.0 0.00 0.26 0.17 35 1011.1
20260506102457 51 124 1.0 7.0 0.00 0.26 0.17 36 1011.1
20260506101037 51 124 1.0 8.0 0.00 0.26 0.17 40 1011.0
20260506101017 51 122 1.0 8.0 0.00 0.26 0.17 40 1011.0
20260506100957 51 123 1.0 8.0 0.00 0.26 0.17 40 1011.0
20260506095537 51 114 0.0 9.0 0.00 0.26 0.17 42 1010.8
20260506095517 51 114 0.0 9.0 0.00 0.26 0.17 38 1010.8
20260506095457 51 113 1.0 9.0 0.00 0.26 0.17 38 1010.8
20260506094038 50 118 0.0 9.0 0.00 0.26 0.17 41 1010.7
20260506094017 50 118 2.0 9.0 0.00 0.26 0.17 41 1010.8
20260506093957 50 118 1.0 9.0 0.00 0.26 0.17 41 1010.7
20260506092537 50 116 1.0 9.0 0.00 0.26 0.17 35 1010.6
20260506092457 50 115 1.0 9.0 0.00 0.26 0.17 35 1010.7
20260506091038 50 118 1.0 11.0 0.00 0.26 0.17 35 1010.6
20260506091018 50 119 1.0 11.0 0.00 0.26 0.17 35 1010.6
20260506090958 50 118 2.0 11.0 0.00 0.26 0.17 35 1010.6
20260506085537 50 117 0.0 8.0 0.00 0.26 0.17 35 1010.5
20260506085518 50 117 1.0 8.0 0.00 0.26 0.17 35 1010.5
20260506085458 50 118 2.0 8.0 0.00 0.26 0.17 35 1010.5
20260506084038 49 107 1.0 7.0 0.00 0.26 0.17 35 1010.4
20260506084018 50 107 3.0 7.0 0.00 0.26 0.17 35 1010.4
20260506083958 50 106 1.0 7.0 0.00 0.26 0.17 35 1010.4
20260506082538 50 106 0.0 9.0 0.00 0.26 0.17 35 1010.3
20260506082518 50 106 1.0 9.0 0.00 0.26 0.17 35 1010.3
20260506082458 50 107 4.0 9.0 0.00 0.26 0.17 35 1010.3
20260506081038 50 121 1.0 9.0 0.00 0.26 0.17 35 1010.2
20260506081018 50 120 3.0 9.0 0.00 0.26 0.17 35 1010.1
20260506080958 50 121 1.0 9.0 0.00 0.26 0.17 35 1010.1
20260506072513 49 119 0.0 8.0 0.00 0.26 0.17 35 1009.9
20260506072453 49 120 0.0 8.0 0.00 0.26 0.17 35 1009.9
20260506071034 49 122 1.0 8.0 0.00 0.26 0.17 35 1009.8
20260506071014 49 123 1.0 8.0 0.00 0.26 0.17 35 1009.7
20260506070953 49 122 1.0 8.0 0.00 0.26 0.17 35 1009.8
20260506062514 48 117 1.0 8.0 0.00 0.26 0.17 35 1009.6
20260506062454 48 117 1.0 8.0 0.00 0.26 0.17 35 1009.7
20260506061034 48 114 1.0 8.0 0.00 0.26 0.17 35 1009.6
20260506061014 48 112 0.0 8.0 0.00 0.26 0.17 35 1009.6
20260506060954 48 111 1.0 8.0 0.00 0.26 0.17 35 1009.6
20260506051035 48 113 4.0 8.0 0.02 0.26 0.17 35 1009.6
20260506050955 48 112 3.0 8.0 0.02 0.26 0.17 35 1009.6
20260506044035 49 114 2.0 7.0 0.00 0.24 0.15 35 1009.5
20260506044015 49 114 1.0 7.0 0.00 0.24 0.15 35 1009.5
20260506043955 49 115 0.0 7.0 0.00 0.24 0.15 35 1009.5
20260506042535 49 117 1.0 7.0 0.00 0.24 0.15 35 1009.5
20260506042515 49 118 0.0 7.0 0.00 0.24 0.15 35 1009.4
20260506042455 49 119 0.0 7.0 0.00 0.24 0.15 35 1009.4
20260506041035 49 129 0.0 5.0 0.00 0.24 0.15 35 1009.4
20260506041015 49 128 1.0 5.0 0.00 0.24 0.15 35 1009.4
20260506040955 49 129 1.0 5.0 0.00 0.24 0.15 35 1009.4
20260506035536 49 125 1.0 7.0 0.00 0.24 0.15 35 1009.3
20260506035515 49 125 0.0 7.0 0.00 0.24 0.15 35 1009.3
20260506035455 49 124 0.0 7.0 0.00 0.24 0.15 35 1009.4
20260506034035 49 131 0.0 5.0 0.00 0.24 0.15 35 1009.4
20260506033956 49 129 1.0 5.0 0.00 0.24 0.15 35 1009.4
20260506032536 49 133 1.0 11.0 0.02 0.26 0.15 35 1009.4
20260506032516 49 131 1.0 11.0 0.02 0.26 0.15 35 1009.4
20260506032456 49 132 1.0 11.0 0.02 0.26 0.15 35 1009.3
20260506031036 49 125 3.0 9.0 0.04 0.28 0.15 35 1009.5
20260506031016 49 126 4.0 9.0 0.04 0.28 0.15 35 1009.5
20260506030956 49 126 3.0 7.0 0.04 0.28 0.15 35 1009.5
20260506025536 49 142 0.0 5.0 0.04 0.24 0.15 35 1009.6
20260506025516 49 141 0.0 5.0 0.04 0.24 0.15 35 1009.6
20260506025456 49 142 1.0 5.0 0.04 0.24 0.15 35 1009.5
20260506024036 49 135 1.0 13.0 0.06 0.26 0.15 35 1009.5
20260506024016 49 136 0.0 13.0 0.06 0.26 0.15 35 1009.6
20260506023956 49 135 1.0 13.0 0.06 0.26 0.15 35 1009.5
20260506022536 50 131 4.0 7.0 0.04 0.24 0.13 35 1009.7
20260506022516 49 130 1.0 5.0 0.04 0.24 0.13 35 1009.6
20260506022456 50 130 3.0 5.0 0.04 0.24 0.13 35 1009.7
20260506021036 50 130 2.0 8.0 0.02 0.22 0.11 35 1009.6
20260506021016 50 131 1.0 8.0 0.02 0.22 0.11 35 1009.6
20260506020956 50 132 1.0 8.0 0.02 0.22 0.11 35 1009.7
20260506015516 50 142 1.0 9.0 0.02 0.19 0.11 35 1009.6
20260506015456 50 142 2.0 9.0 0.02 0.19 0.11 35 1009.7
20260506014036 50 129 3.0 8.0 0.02 0.19 0.08 35 1009.6
20260506014017 50 128 4.0 8.0 0.02 0.19 0.08 35 1009.5
20260506013957 50 127 4.0 8.0 0.02 0.19 0.08 35 1009.5
20260506012537 50 140 1.0 7.0 0.04 0.22 0.08 35 1009.6
20260506012517 50 140 0.0 7.0 0.04 0.22 0.08 35 1009.6
20260506012457 50 140 4.0 7.0 0.04 0.22 0.08 35 1009.6
20260506011037 50 132 2.0 8.0 0.04 0.22 0.08 35 1009.7
20260506010957 50 132 1.0 8.0 0.04 0.22 0.08 35 1009.6
20260506005537 50 140 3.0 9.0 0.04 0.17 0.08 35 1009.7
20260506005517 50 140 4.0 9.0 0.04 0.17 0.08 35 1009.7
20260506005457 50 140 3.0 9.0 0.04 0.17 0.08 35 1009.6
20260506004017 51 140 1.0 8.0 0.02 0.15 0.06 34 1009.7
20260506003957 51 141 3.0 8.0 0.02 0.15 0.06 34 1009.7
20260506002537 51 144 1.0 8.0 0.02 0.15 0.04 34 1009.8
20260506002517 51 142 0.0 8.0 0.02 0.15 0.04 34 1009.8
20260506002457 51 142 2.0 8.0 0.02 0.15 0.04 34 1009.8
20260506001037 52 129 0.0 5.0 0.02 0.15 0.04 34 1009.9
20260506000957 52 128 1.0 5.0 0.02 0.15 0.04 34 1009.9
20260505235537 52 135 1.0 7.0 0.04 0.13 0.04 34 1010.0
20260505235517 52 135 0.0 7.0 0.04 0.13 0.04 34 1010.1
20260505235458 52 135 0.0 7.0 0.04 0.13 0.04 34 1010.0
20260505234038 52 130 1.0 7.0 0.06 0.15 0.04 34 1010.1
20260505234018 52 128 0.0 7.0 0.06 0.15 0.04 34 1010.1
20260505233958 52 126 0.0 7.0 0.06 0.15 0.04 34 1010.1
20260505232538 52 139 0.0 5.0 0.06 0.15 0.02 34 1010.2
20260505232518 52 137 0.0 5.0 0.06 0.15 0.02 34 1010.1
20260505232458 52 138 0.0 5.0 0.06 0.15 0.02 34 1010.1
20260505231038 52 134 3.0 5.0 0.06 0.15 0.02 34 1010.2
20260505231018 52 134 1.0 5.0 0.06 0.15 0.02 34 1010.2
20260505230958 52 133 1.0 5.0 0.06 0.15 0.02 34 1010.2
20260505225538 52 140 0.0 5.0 0.04 0.08 0.08 34 1010.3
20260505225518 52 139 1.0 5.0 0.04 0.08 0.08 34 1010.2
20260505225458 52 141 0.0 5.0 0.04 0.08 0.08 34 1010.2
20260505224038 52 142 0.0 4.0 0.02 0.06 0.06 34 1010.3
20260505224018 52 141 0.0 4.0 0.02 0.06 0.06 34 1010.4
20260505223958 52 141 1.0 4.0 0.02 0.06 0.06 34 1010.4
20260505222533 52 130 1.0 5.0 0.00 0.04 0.04 34 1010.3
20260505222513 52 131 0.0 5.0 0.00 0.04 0.04 34 1010.4
20260505222454 52 130 1.0 5.0 0.00 0.04 0.04 34 1010.3
20260505221034 52 143 0.0 5.0 0.00 0.04 0.04 34 1010.3
20260505221014 52 142 0.0 5.0 0.00 0.04 0.04 34 1010.3
20260505220953 52 143 1.0 5.0 0.00 0.04 0.04 34 1010.4
20260505215514 52 128 0.0 4.0 0.00 0.04 0.04 34 1010.4
20260505215454 52 126 0.0 4.0 0.00 0.04 0.04 34 1010.4
20260505214034 52 130 1.0 7.0 0.00 0.04 0.04 34 1010.5
20260505214014 52 129 0.0 7.0 0.00 0.04 0.04 34 1010.5
20260505213954 52 130 1.0 7.0 0.00 0.04 0.04 34 1010.5
20260505212534 52 140 0.0 8.0 0.00 0.04 0.04 34 1010.5
20260505212514 52 141 1.0 8.0 0.00 0.04 0.04 34 1010.5
20260505212454 52 142 0.0 8.0 0.00 0.04 0.04 34 1010.6
20260505211034 52 130 1.0 5.0 0.00 0.04 0.04 34 1010.6
20260505211014 52 131 0.0 5.0 0.00 0.04 0.04 34 1010.6
20260505210954 52 130 0.0 5.0 0.00 0.04 0.04 34 1010.6
20260505205534 52 139 3.0 9.0 0.00 0.04 0.04 34 1010.6
20260505205514 52 138 0.0 9.0 0.00 0.04 0.04 34 1010.6
20260505205454 52 138 1.0 9.0 0.00 0.04 0.04 34 1010.7
20260505204034 52 126 0.0 5.0 0.00 0.04 0.04 34 1010.6
20260505204014 52 127 3.0 5.0 0.00 0.04 0.04 34 1010.6
20260505203955 52 126 0.0 5.0 0.00 0.04 0.04 34 1010.7
20260505202534 53 137 3.0 8.0 0.02 0.06 0.04 34 1010.5
20260505202515 53 137 3.0 8.0 0.02 0.06 0.04 34 1010.6
20260505202455 53 136 3.0 8.0 0.02 0.06 0.04 34 1010.6
20260505201035 53 139 1.0 5.0 0.02 0.06 0.04 34 1010.5
20260505201015 53 138 2.0 5.0 0.02 0.06 0.04 34 1010.5
20260505200955 53 137 1.0 5.0 0.02 0.06 0.04 34 1010.5
20260505195535 53 133 0.0 4.0 0.02 0.04 0.04 34 1010.4
20260505195515 53 132 0.0 4.0 0.02 0.04 0.04 34 1010.4
20260505195455 53 133 0.0 4.0 0.02 0.04 0.04 34 1010.4
20260505194035 53 135 0.0 5.0 0.02 0.04 0.04 34 1010.2
20260505194015 53 137 0.0 5.0 0.02 0.04 0.04 34 1010.3
20260505193955 53 134 0.0 5.0 0.02 0.04 0.04 34 1010.4
20260505192535 53 132 0.0 5.0 0.00 0.02 0.02 34 1010.2
20260505192515 53 132 2.0 5.0 0.00 0.02 0.02 34 1010.2
20260505192455 53 130 1.0 5.0 0.00 0.02 0.02 34 1010.3
20260505191035 53 156 0.0 5.0 0.00 0.02 0.02 34 1010.1
20260505191015 53 159 0.0 5.0 0.00 0.02 0.02 34 1010.1
20260505190955 53 161 0.0 5.0 0.00 0.02 0.02 34 1010.1
20260505185535 53 140 1.0 5.0 0.00 0.02 0.02 34 1010.1
20260505185515 53 139 0.0 5.0 0.00 0.02 0.02 34 1010.1
20260505185455 53 139 4.0 5.0 0.00 0.02 0.02 34 1010.0
20260505184036 53 138 1.0 11.0 0.00 0.02 0.02 34 1010.1
20260505184015 53 139 0.0 11.0 0.00 0.02 0.02 34 1010.0
20260505183956 53 141 1.0 11.0 0.00 0.02 0.02 34 1010.0
20260505182536 54 141 2.0 9.0 0.00 0.02 0.02 34 1010.0
20260505182516 54 141 1.0 9.0 0.00 0.02 0.02 34 1010.0
20260505182456 54 140 1.0 9.0 0.00 0.02 0.02 34 1010.0
20260505181036 54 136 1.0 8.0 0.00 0.02 0.02 34 1010.0
20260505181016 54 134 1.0 8.0 0.00 0.02 0.02 34 1010.1
20260505180955 54 135 4.0 5.0 0.00 0.02 0.02 34 1010.1
20260505175536 54 127 1.0 9.0 0.00 0.02 0.02 34 1010.0
20260505175516 54 125 2.0 9.0 0.00 0.02 0.02 34 1010.1
20260505175456 54 124 3.0 8.0 0.00 0.02 0.02 34 1009.9
20260505174036 54 138 1.0 8.0 0.00 0.02 0.02 34 1010.0
20260505174016 54 140 4.0 8.0 0.00 0.02 0.02 34 1010.0
20260505173956 54 141 1.0 8.0 0.00 0.02 0.02 34 1010.0
20260505172536 54 144 1.0 8.0 0.02 0.04 0.02 34 1010.1
20260505172516 54 144 0.0 8.0 0.02 0.04 0.02 34 1010.1
20260505172456 54 144 1.0 8.0 0.02 0.04 0.02 34 1010.1
20260505171036 54 137 2.0 9.0 0.02 0.04 0.02 34 1010.0
20260505171016 54 137 0.0 9.0 0.02 0.04 0.02 34 1010.0
20260505170956 54 134 0.0 9.0 0.02 0.04 0.02 34 1010.0
20260505165536 54 134 2.0 7.0 0.02 0.02 0.02 34 1010.1
20260505165517 54 132 0.0 7.0 0.02 0.02 0.02 34 1010.1
20260505165456 54 133 2.0 7.0 0.02 0.02 0.02 33 1010.1